GW7290 Weather Reports


Display with metric or nautical units.
time (UTC)temp
F
wind
direction
speed
MPH
gust
MPH
rain 1hr
in
rain 24hr
in
rain mn
in
humidity
%
barometer
mb
20260507064018 75 0.0 0.0 0.00 0.80 0.03 91
20260507063024 75 0.0 0.0 0.03 0.80 0.03 90
20260507062030 75 0.0 0.0 0.03 0.80 0.03 90
20260507061018 75 0.0 1.0 0.03 0.80 0.03 90
20260507060023 75 0.0 0.0 0.03 0.80 0.03 90
20260507055050 75 11 0.0 2.0 0.03 0.80 0.03 90
20260507054017 75 0.0 0.0 0.03 0.80 0.03 90
20260507053023 75 113 0.0 2.0 0.00 0.77 0.00 90
20260507052030 75 68 0.0 1.0 0.00 0.77 0.00 90
20260507051017 76 0.0 1.0 0.08 0.77 0.00 90
20260507050024 76 0.0 0.0 0.08 0.77 0.00 90
20260507045030 76 0.0 0.0 0.08 0.77 0.77 89
20260507044018 76 0.0 0.0 0.08 0.77 0.77 89
20260507043044 76 0.0 0.0 0.08 0.77 0.77 89
20260507042030 76 34 1.0 3.0 0.13 0.77 0.77 89
20260507041018 76 0.0 0.0 0.19 0.69 0.69 88
20260507040024 76 0.0 1.0 0.30 0.69 0.69 88
20260507035050 76 280 1.0 2.0 0.36 0.69 0.69 88
20260507034038 76 291 1.0 3.0 0.41 0.71 0.69 87
20260507033018 76 135 0.0 2.0 0.65 0.73 0.69 87
20260507032029 77 314 1.0 2.0 0.60 0.73 0.64 85
20260507031019 77 4 1.0 2.0 0.46 0.61 0.50 85
20260507030017 77 292 1.0 3.0 0.35 0.52 0.39 84
20260507025027 77 207 0.0 2.0 0.29 0.48 0.33 83
20260507024019 78 194 1.0 3.0 0.24 0.43 0.28 82
20260507023024 79 91 2.0 5.0 0.00 0.19 0.04 80
20260507022030 79 0.0 0.0 0.00 0.19 0.04 80
20260507021046 79 132 0.0 2.0 0.00 0.19 0.04 80
20260507020018 79 90 0.0 1.0 0.00 0.39 0.04 81
20260507015017 79 105 0.0 1.0 0.00 0.39 0.04 81
20260507014037 79 123 1.0 2.0 0.00 0.39 0.04 81
20260507013023 79 109 1.0 2.0 0.00 0.39 0.04 81
20260507012029 80 118 1.0 3.0 0.00 0.39 0.04 80
20260507011018 80 78 2.0 5.0 0.00 0.39 0.04 79
20260507010025 81 106 1.0 2.0 0.00 0.39 0.04 77
20260507005018 81 0.0 0.0 0.00 0.39 0.04 75
20260507004018 81 121 1.0 3.0 0.00 0.39 0.04 73
20260507003024 81 109 1.0 2.0 0.00 0.39 0.04 73
20260507002030 81 129 1.0 3.0 0.00 0.39 0.04 73
20260507001018 81 88 1.0 3.0 0.00 0.40 0.04 72
20260507000044 82 97 0.0 2.0 0.00 0.45 0.04 71
20260506235025 82 183 0.0 2.0 0.00 0.46 0.04 72
20260506234017 82 0.0 0.0 0.00 0.46 0.04 72
20260506233023 83 0.0 0.0 0.00 0.46 0.04 71
20260506232029 83 113 0.0 1.0 0.00 0.46 0.04 73
20260506231019 83 279 0.0 2.0 0.00 0.46 0.04 72
20260506230025 84 0.0 0.0 0.00 0.46 0.04 69
20260506225031 84 0.0 0.0 0.00 0.46 0.04 68
20260506224018 85 63 0.0 2.0 0.00 0.46 0.04 66
20260506223024 85 161 1.0 4.0 0.00 0.46 0.04 66
20260506222026 86 39 1.0 4.0 0.00 0.46 0.04 67
20260506221038 85 21 2.0 3.0 0.00 0.46 0.04 67
20260506220024 86 106 1.0 3.0 0.00 0.46 0.04 67
20260506215029 86 351 3.0 4.0 0.00 0.46 0.04 68
20260506214017 86 300 2.0 3.0 0.00 0.46 0.04 67
20260506213023 86 249 1.0 3.0 0.00 0.46 0.04 69
20260506212018 85 38 1.0 3.0 0.00 0.46 0.04 68
20260506211017 85 350 1.0 2.0 0.00 0.46 0.04 69
20260506210045 85 51 0.0 2.0 0.00 0.46 0.04 70
20260506205027 85 283 1.0 2.0 0.00 0.46 0.04 71
20260506204018 86 0.0 0.0 0.00 0.46 0.04 67
20260506203024 86 26 1.0 2.0 0.00 0.46 0.04 64
20260506202030 87 117 1.0 3.0 0.00 0.46 0.04 64
20260506201038 87 261 2.0 3.0 0.00 0.46 0.04 66
20260506200018 87 127 1.0 2.0 0.00 0.46 0.04 64
20260506195029 88 80 2.0 4.0 0.00 0.46 0.04 63
20260506194038 87 188 2.0 3.0 0.00 0.46 0.04 64
20260506193017 86 0.0 1.0 0.00 0.46 0.04 66
20260506192017 87 61 2.0 4.0 0.00 0.46 0.04 64
20260506191017 87 53 0.0 1.0 0.04 0.46 0.04 66
20260506190019 87 154 2.0 5.0 0.04 0.46 0.04 63
20260506185027 86 91 2.0 4.0 0.04 0.46 0.04 66
20260506184018 85 186 2.0 4.0 0.04 0.46 0.04 70
20260506183026 84 292 1.0 4.0 0.04 0.46 0.04 75
20260506182050 84 135 0.0 1.0 0.04 0.46 0.04 72
20260506181018 86 112 1.0 3.0 0.00 0.42 0.00 68
20260506180044 86 247 1.0 3.0 0.00 0.42 0.00 70
20260506175050 86 203 1.0 3.0 0.00 0.42 0.00 70
20260506174017 86 157 1.0 2.0 0.00 0.42 0.00 68
20260506173017 86 149 1.0 3.0 0.00 0.42 0.00 69
20260506172029 86 165 2.0 5.0 0.00 0.42 0.00 68
20260506171019 86 103 1.0 3.0 0.00 0.42 0.00 71
20260506170025 85 152 1.0 3.0 0.00 0.42 0.00 73
20260506165027 85 116 1.0 2.0 0.00 0.42 0.00 73
20260506164018 85 146 1.0 3.0 0.00 0.42 0.00 73
20260506163024 85 56 2.0 4.0 0.00 0.42 0.00 74
20260506162026 83 198 1.0 3.0 0.00 0.42 0.00 78
20260506161018 83 278 1.0 2.0 0.00 0.42 0.00 78
20260506160023 83 98 0.0 2.0 0.00 0.42 0.00 76
20260506155050 84 82 2.0 4.0 0.00 0.42 0.00 75
20260506154017 83 139 2.0 3.0 0.00 0.42 0.00 77
20260506153017 83 138 2.0 4.0 0.00 0.42 0.00 76
20260506152025 83 7 3.0 4.0 0.00 0.42 0.00 79
20260506151024 81 322 3.0 6.0 0.00 0.42 0.00 86
20260506150019 81 291 0.0 2.0 0.00 0.42 0.00 88
20260506145026 80 145 1.0 3.0 0.00 0.42 0.00 89
20260506144046 79 5 1.0 3.0 0.00 0.42 0.00 89
20260506143024 79 325 1.0 2.0 0.00 0.42 0.00 89
20260506142038 79 279 1.0 3.0 0.00 0.42 0.00 90
20260506141017 78 0.0 0.0 0.00 0.42 0.00 90
20260506140023 79 0.0 0.0 0.00 0.42 0.00 90
20260506135025 79 276 1.0 3.0 0.00 0.42 0.00 90
20260506134017 78 203 0.0 1.0 0.00 0.42 0.00 90
20260506133017 78 309 2.0 3.0 0.00 0.42 0.00 90
20260506132045 78 0.0 0.0 0.00 0.43 0.00 91
20260506131018 77 284 1.0 3.0 0.00 0.43 0.00 91
20260506130045 77 248 0.0 2.0 0.00 0.43 0.00 91
20260506125026 76 272 1.0 2.0 0.00 0.43 0.00 94
20260506124038 76 225 0.0 1.0 0.00 0.43 0.00 95
20260506123044 75 0.0 0.0 0.00 0.43 0.00 95
20260506122018 75 0.0 0.0 0.00 0.43 0.00 95
20260506121018 75 270 0.0 2.0 0.00 0.43 0.00 94
20260506120046 75 309 1.0 2.0 0.00 0.43 0.00 95
20260506115049 75 0.0 0.0 0.00 0.43 0.00 95
20260506114037 74 0.0 0.0 0.00 0.43 0.00 96
20260506113023 74 0.0 0.0 0.00 0.43 0.00 96
20260506112049 74 0.0 0.0 0.00 0.43 0.00 95
20260506111019 73 0.0 0.0 0.00 0.43 0.00 95
20260506110024 73 0.0 0.0 0.00 0.43 0.00 95
20260506105030 73 0.0 0.0 0.00 0.43 0.00 94
20260506104018 74 0.0 0.0 0.00 0.43 0.00 94
20260506103044 74 0.0 0.0 0.00 0.43 0.00 94
20260506102030 74 0.0 0.0 0.00 0.43 0.00 95
20260506101018 74 0.0 0.0 0.00 0.43 0.00 95
20260506100023 74 0.0 0.0 0.00 0.43 0.00 94
20260506095029 74 0.0 0.0 0.00 0.43 0.00 94
20260506094017 74 0.0 0.0 0.00 0.43 0.00 94
20260506093029 74 0.0 0.0 0.00 0.43 0.00 94
20260506092049 74 0.0 0.0 0.00 0.46 0.00 94
20260506091017 74 0.0 0.0 0.00 0.46 0.00 94
20260506090043 74 0.0 0.0 0.00 0.46 0.00 93
20260506085051 74 0.0 0.0 0.00 0.46 0.00 93
20260506084019 74 0.0 0.0 0.00 0.46 0.00 93
20260506083024 74 0.0 0.0 0.00 0.46 0.00 94
20260506082050 74 0.0 0.0 0.00 0.46 0.00 94
20260506081018 74 0.0 0.0 0.00 0.46 0.00 95
20260506073023 74 0.0 0.0 0.00 0.46 0.00 93
20260506072029 74 0.0 0.0 0.00 0.46 0.00 93
20260506071037 74 0.0 0.0 0.00 0.46 0.00 93